Location: Bernadets
(43.3537°N, 0.3167°E)
Time: 08:14:22
(UTC+00:00)

FALCON 9 DEB - Pass Details

Date: 24 October 2021
Orbit: 336 x 348 km, 53.0° (Epoch: 02 December)

Event Time Altitude Azimuth Distance (km) Brightness Sun altitude
Rises 17:53:41 0° 195° (SSW) 2,163 7.0 -10.2°
Reaches altitude 10° 17:56:10 10° 172° (S) 1,332 5.6 -10.6°
Maximum altitude 17:58:06 16° 131° (SE) 1,046 4.7 -11.0°
Enters shadow 17:58:47 15° 115° (ESE) 1,090 4.6 -11.1°
